QPF
0.01 0.00 0.00 0.01 0.01 0.02 0.02 0.02 0.02 0.01 0.01 0.01 0.01 0.01 0.01 0.01 0.01 0.01 0.01 0.01 0.01 0.01 0.01 0.01 0.02 0.02 0.02 0.02 0.01 0.01 0.02 0.02 0.03 0.03 0.03 0.03 0.05 0.06 0.08 0.06 0.04 0.04 0.04 0.04
0.01 0.01 0.01 0.01 0.01 0.02 0.02 0.02 0.01 0.01 0.01 0.01 0.01 0.01 0.01 0.01 0.01 0.01 0.01 0.01 0.01 0.01 0.01 0.01 0.02 0.02 0.01 0.02 0.02 0.02 0.01 0.02 0.03 0.03 0.03 0.03 0.04 0.05 0.06 0.08 0.07 0.05 0.04 0.04
0.01 0.01 0.01 0.01 0.01 0.01 0.01 0.02 0.01 0.01 0.01 0.01 0.01 0.01 0.02 0.02 0.02 0.02 0.01 0.01 0.01 0.01 0.01 0.01 0.01 0.01 0.02 0.02 0.02 0.02 0.02 0.02 0.02 0.03 0.03 0.03 0.03 0.04 0.05 0.06 0.07 0.07 0.06 0.06
0.02 0.01 0.02 0.02 0.01 0.01 0.01 0.01 0.01 0.01 0.01 0.01 0.01 0.01 0.01 0.02 0.02 0.01 0.01 0.01 0.01 0.01 0.01 0.01 0.01 0.01 0.01 0.02 0.02 0.02 0.02 0.02 0.02 0.02 0.02 0.03 0.03 0.03 0.04 0.04 0.05 0.07 0.07 0.07
0.02 0.02 0.01 0.01 0.01 0.01 0.01 0.01 0.01 0.01 0.01 0.01 0.01 0.01 0.01 0.01 0.01 0.01 0.01 0.01 0.01 0.01 0.01 0.01 0.01 0.01 0.01 0.02 0.03 0.02 0.02 0.02 0.02 0.02 0.02 0.03 0.03 0.03 0.03 0.04 0.04 0.05 0.05 0.05
0.02 0.02 0.01 0.01 0.00 0.00 0.01 0.01 0.01 0.01 0.01 0.01 0.01 0.01 0.01 0.01 0.00 0.01 0.01 0.01 0.01 0.01 0.01 0.01 0.01 0.01 0.01 0.01 0.02 0.02 0.02 0.02 0.02 0.02 0.02 0.03 0.03 0.03 0.03 0.03 0.03 0.03 0.04 0.05
0.01 0.02 0.01 0.01 0.00 0.00 0.01 0.01 0.01 0.00 0.01 0.01 0.01 0.01 0.01 0.00 0.00 0.00 0.00 0.01 0.01 0.01 0.01 0.01 0.01 0.01 0.01 0.01 0.02 0.02 0.02 0.02 0.02 0.03 0.03 0.03 0.03 0.03 0.03 0.03 0.02 0.03 0.03 0.04
0.01 0.02 0.02 0.01 0.00 0.01 0.01 0.01 0.00 0.00 0.00 0.00 0.01 0.00 0.00 0.00 0.00 0.00 0.00 0.00 0.01 0.01 0.01 0.01 0.01 0.01 0.02 0.02 0.02 0.02 0.02 0.02 0.02 0.03 0.03 0.03 0.03 0.02 0.02 0.02 0.02 0.02 0.02 0.03
0.01 0.01 0.01 0.01 0.01 0.01 0.00 0.00 0.00 0.00 0.00 0.00 0.00 0.00 0.00 0.00 0.00 0.00 0.00 0.00 0.00 0.01 0.01 0.01 0.01 0.01 0.02 0.02 0.02 0.02 0.02 0.03 0.03 0.02 0.02 0.03 0.03 0.03 0.02 0.02 0.02 0.02 0.02 0.03
0.01 0.01 0.01 0.00 0.00 0.00 0.00 0.00 0.00 0.00 0.00 0.00 0.01 0.01 0.00 0.00 0.00 0.00 0.00 0.00 0.00 0.00 0.01 0.01 0.01 0.01 0.01 0.02 0.02 0.02 0.02 0.03 0.03 0.03 0.02 0.02 0.03 0.03 0.03 0.02 0.02 0.02 0.02 0.02
0.01 0.01 0.01 0.01 0.01 0.01 0.00 0.00 0.00 0.00 0.00 0.00 0.01 0.01 0.00 0.00 0.00 0.00 0.00 0.00 0.00 0.00 0.00 0.00 0.01 0.01 0.01 0.02 0.02 0.02 0.02 0.02 0.03 0.03 0.02 0.02 0.02 0.02 0.02 0.02 0.02 0.03 0.03 0.02
0.01 0.01 0.01 0.01 0.01 0.01 0.00 0.00 0.00 0.00 0.00 0.00 0.00 0.00 0.00 0.00 0.00 0.00 0.00 0.00 0.00 0.00 0.00 0.00 0.00 0.01 0.01 0.02 0.02 0.02 0.02 0.02 0.04 0.03 0.02 0.02 0.02 0.02 0.02 0.02 0.02 0.02 0.02 0.03
0.01 0.01 0.01 0.01 0.01 0.01 0.00 0.00 0.00 0.00 0.00 0.00 0.00 0.00 0.00 0.00 0.00 0.00 0.00 0.00 0.00 0.00 0.00 0.00 0.00 0.01 0.01 0.01 0.02 0.02 0.02 0.03 0.04 0.04 0.03 0.02 0.02 0.02 0.02 0.02 0.02 0.02 0.02 0.02
0.01 0.01 0.01 0.01 0.00 0.00 0.00 0.00 0.00 0.00 0.00 0.00 0.00 0.00 0.00 0.00 0.00 0.00 0.00 0.00 0.00 0.00 0.00 0.00 0.00 0.00 0.01 0.01 0.02 0.02 0.02 0.03 0.04 0.04 0.03 0.03 0.02 0.02 0.02 0.02 0.02 0.03 0.03 0.02
0.01 0.01 0.01 0.01 0.00 0.00 0.00 0.00 0.00 0.00 0.00 0.00 0.00 0.00 0.00 0.00 0.00 0.00 0.00 0.00 0.00 0.00 0.00 0.00 0.00 0.00 0.01 0.01 0.01 0.01 0.01 0.02 0.03 0.04 0.04 0.03 0.02 0.02 0.02 0.02 0.02 0.02 0.03 0.03
0.01 0.00 0.00 0.00 0.00 0.00 0.00 0.00 0.00 0.00 0.00 0.00 0.00 0.00 0.00 0.00 0.00 0.00 0.00 0.00 0.00 0.00 0.00 0.00 0.00 0.00 0.00 0.01 0.01 0.01 0.01 0.01 0.02 0.03 0.03 0.03 0.03 0.02 0.02 0.02 0.02 0.02 0.02 0.03
0.01 0.00 0.00 0.00 0.00 0.00 0.00 0.00 0.00 0.00 0.00 0.00 0.00 0.00 0.00 0.00 0.00 0.00 0.00 0.00 0.00 0.00 0.00 0.00 0.00 0.00 0.00 0.01 0.01 0.01 0.01 0.01 0.02 0.02 0.02 0.02 0.03 0.02 0.02 0.02 0.02 0.02 0.02 0.02
0.00 0.00 0.00 0.00 0.00 0.00 0.00 0.00 0.00 0.00 0.00 0.00 0.00 0.00 0.00 0.00 0.00 0.00 0.00 0.00 0.00 0.00 0.00 0.00 0.01 0.01 0.00 0.01 0.01 0.01 0.01 0.01 0.01 0.02 0.02 0.02 0.02 0.02 0.02 0.02 0.02 0.02 0.02 0.02
0.00 0.00 0.00 0.00 0.00 0.00 0.00 0.00 0.00 0.00 0.00 0.00 0.00 0.00 0.00 0.00 0.00 0.00 0.00 0.00 0.00 0.00 0.00 0.00 0.01 0.00 0.00 0.01 0.01 0.01 0.01 0.01 0.01 0.01 0.01 0.02 0.02 0.02 0.02 0.02 0.02 0.02 0.02 0.02
0.00 0.00 0.00 0.00 0.00 0.00 0.00 0.00 0.00 0.00 0.00 0.00 0.00 0.00 0.00 0.00 0.00 0.00 0.00 0.00 0.00 0.00 0.00 0.00 0.00 0.00 0.00 0.01 0.01 0.01 0.01 0.01 0.01 0.01 0.01 0.01 0.01 0.01 0.01 0.02 0.02 0.02 0.02 0.02
0.00 0.00 0.00 0.00 0.00 0.00 0.00 0.00 0.00 0.00 0.00 0.00 0.00 0.00 0.00 0.00 0.00 0.00 0.00 0.00 0.00 0.00 0.00 0.00 0.00 0.00 0.01 0.01 0.01 0.01 0.01 0.01 0.01 0.01 0.01 0.01 0.01 0.01 0.01 0.01 0.01 0.02 0.02 0.02
0.00 0.00 0.00 0.00 0.00 0.00 0.00 0.00 0.00 0.00 0.00 0.00 0.00 0.00 0.00 0.00 0.00 0.00 0.00 0.00 0.00 0.00 0.00 0.00 0.00 0.01 0.01 0.01 0.01 0.01 0.01 0.01 0.01 0.01 0.01 0.01 0.01 0.01 0.01 0.01 0.01 0.01 0.02 0.02
0.00 0.00 0.00 0.00 0.00 0.00 0.00 0.00 0.00 0.00 0.00 0.00 0.00 0.00 0.00 0.00 0.00 0.00 0.00 0.00 0.00 0.00 0.01 0.00 0.01 0.01 0.01 0.01 0.01 0.01 0.01 0.01 0.01 0.01 0.01 0.01 0.01 0.01 0.01 0.01 0.01 0.01 0.01 0.01
0.00 0.00 0.00 0.00 0.00 0.00 0.00 0.00 0.00 0.00 0.00 0.00 0.00 0.00 0.00 0.00 0.00 0.00 0.00 0.00 0.00 0.01 0.01 0.00 0.01 0.01 0.01 0.01 0.01 0.00 0.01 0.01 0.01 0.01 0.01 0.01 0.01 0.01 0.01 0.01 0.01 0.01 0.01 0.01
0.00 0.00 0.00 0.00 0.00 0.00 0.00 0.00 0.00 0.00 0.00 0.00 0.00 0.00 0.00 0.00 0.00 0.00 0.00 0.00 0.00 0.00 0.00 0.00 0.00 0.01 0.01 0.00 0.00 0.00 0.01 0.01 0.01 0.01 0.01 0.01 0.01 0.01 0.01 0.01 0.01 0.01 0.01 0.01
0.00 0.00 0.00 0.00 0.00 0.00 0.00 0.00 0.00 0.00 0.00 0.00 0.00 0.00 0.00 0.00 0.00 0.00 0.00 0.00 0.00 0.00 0.00 0.00 0.00 0.00 0.00 0.00 0.00 0.00 0.01 0.01 0.01 0.01 0.01 0.01 0.01 0.01 0.01 0.01 0.01 0.01 0.01 0.02
0.00 0.00 0.00 0.00 0.00 0.00 0.00 0.00 0.00 0.00 0.00 0.00 0.00 0.00 0.00 0.00 0.00 0.00 0.00 0.00 0.00 0.00 0.00 0.00 0.00 0.00 0.00 0.00 0.00 0.00 0.00 0.01 0.01 0.01 0.01 0.01 0.01 0.01 0.01 0.01 0.01 0.01 0.01 0.02
MSLP
1019.95 1020.29 1020.64 1021.04 1021.51 1022.07 1022.76 1023.57 1024.51 1025.57 1026.71 1027.92 1029.16 1030.41 1031.64 1032.86 1034.05 1035.22 1036.36 1037.46 1038.48 1039.40 1040.16 1040.73 1041.08 1041.17 1041.03 1040.67 1040.14 1039.51 1038.85 1038.21 1037.64 1037.16 1036.77 1036.45 1036.14 1035.82 1035.43 1034.97 1034.41 1033.77 1033.08 1032.38
1020.51 1020.84 1021.18 1021.55 1021.96 1022.46 1023.05 1023.75 1024.58 1025.52 1026.58 1027.71 1028.92 1030.16 1031.42 1032.69 1033.94 1035.16 1036.34 1037.44 1038.45 1039.31 1040.00 1040.49 1040.74 1040.76 1040.56 1040.18 1039.66 1039.07 1038.48 1037.92 1037.44 1037.05 1036.74 1036.47 1036.20 1035.90 1035.52 1035.04 1034.47 1033.80 1033.08 1032.35
1021.05 1021.37 1021.69 1022.02 1022.38 1022.80 1023.31 1023.93 1024.67 1025.55 1026.55 1027.66 1028.85 1030.11 1031.40 1032.70 1033.98 1035.22 1036.39 1037.45 1038.39 1039.16 1039.75 1040.12 1040.29 1040.23 1039.99 1039.60 1039.12 1038.59 1038.07 1037.61 1037.22 1036.91 1036.66 1036.45 1036.22 1035.94 1035.57 1035.10 1034.52 1033.85 1033.12 1032.38
1021.53 1021.86 1022.18 1022.49 1022.83 1023.21 1023.68 1024.25 1024.96 1025.80 1026.77 1027.87 1029.06 1030.32 1031.62 1032.91 1034.17 1035.36 1036.46 1037.44 1038.27 1038.91 1039.38 1039.64 1039.71 1039.61 1039.34 1038.97 1038.53 1038.07 1037.64 1037.27 1036.96 1036.73 1036.54 1036.37 1036.17 1035.91 1035.56 1035.10 1034.54 1033.89 1033.18 1032.45
1021.93 1022.31 1022.67 1023.02 1023.37 1023.77 1024.24 1024.82 1025.51 1026.34 1027.31 1028.39 1029.56 1030.79 1032.04 1033.27 1034.45 1035.54 1036.52 1037.35 1038.03 1038.54 1038.87 1039.04 1039.04 1038.90 1038.64 1038.31 1037.94 1037.56 1037.22 1036.92 1036.69 1036.51 1036.37 1036.22 1036.04 1035.80 1035.47 1035.04 1034.51 1033.90 1033.23 1032.54
1022.27 1022.74 1023.18 1023.61 1024.04 1024.50 1025.01 1025.62 1026.33 1027.16 1028.11 1029.16 1030.28 1031.43 1032.58 1033.69 1034.73 1035.66 1036.46 1037.13 1037.65 1038.01 1038.23 1038.32 1038.28 1038.14 1037.92 1037.65 1037.36 1037.07 1036.81 1036.59 1036.42 1036.27 1036.15 1036.02 1035.85 1035.62 1035.31 1034.90 1034.42 1033.85 1033.24 1032.61
1022.59 1023.18 1023.74 1024.28 1024.81 1025.36 1025.94 1026.59 1027.33 1028.15 1029.07 1030.05 1031.07 1032.10 1033.10 1034.04 1034.89 1035.63 1036.24 1036.73 1037.09 1037.33 1037.46 1037.50 1037.46 1037.36 1037.20 1037.02 1036.82 1036.63 1036.45 1036.29 1036.15 1036.02 1035.90 1035.76 1035.58 1035.35 1035.05 1034.68 1034.23 1033.73 1033.17 1032.60
1022.98 1023.70 1024.38 1025.03 1025.66 1026.29 1026.93 1027.62 1028.36 1029.15 1030.00 1030.88 1031.78 1032.65 1033.46 1034.20 1034.85 1035.38 1035.81 1036.13 1036.36 1036.51 1036.60 1036.63 1036.62 1036.58 1036.52 1036.44 1036.34 1036.24 1036.12 1036.01 1035.88 1035.76 1035.61 1035.45 1035.25 1035.00 1034.71 1034.36 1033.95 1033.49 1032.99 1032.47
1023.53 1024.34 1025.11 1025.84 1026.54 1027.21 1027.88 1028.57 1029.27 1030.00 1030.75 1031.50 1032.23 1032.92 1033.55 1034.09 1034.53 1034.89 1035.15 1035.35 1035.49 1035.59 1035.67 1035.74 1035.79 1035.85 1035.88 1035.91 1035.91 1035.88 1035.82 1035.73 1035.61 1035.46 1035.29 1035.08 1034.84 1034.58 1034.27 1033.93 1033.55 1033.13 1032.68 1032.20
1024.30 1025.15 1025.95 1026.71 1027.41 1028.07 1028.70 1029.33 1029.95 1030.57 1031.19 1031.79 1032.36 1032.87 1033.31 1033.67 1033.95 1034.16 1034.32 1034.43 1034.52 1034.62 1034.73 1034.85 1034.99 1035.14 1035.28 1035.40 1035.49 1035.52 1035.50 1035.43 1035.30 1035.12 1034.90 1034.65 1034.37 1034.07 1033.75 1033.41 1033.04 1032.65 1032.23 1031.78
1025.31 1026.14 1026.91 1027.60 1028.23 1028.81 1029.34 1029.85 1030.34 1030.82 1031.28 1031.73 1032.13 1032.47 1032.76 1032.99 1033.15 1033.27 1033.36 1033.43 1033.52 1033.64 1033.80 1034.00 1034.22 1034.46 1034.69 1034.88 1035.03 1035.11 1035.12 1035.05 1034.91 1034.70 1034.44 1034.15 1033.83 1033.50 1033.16 1032.81 1032.44 1032.06 1031.66 1031.23
1026.54 1027.27 1027.93 1028.49 1028.98 1029.40 1029.77 1030.12 1030.44 1030.76 1031.06 1031.35 1031.60 1031.82 1032.00 1032.13 1032.22 1032.29 1032.35 1032.43 1032.54 1032.70 1032.91 1033.16 1033.45 1033.75 1034.04 1034.30 1034.49 1034.60 1034.62 1034.56 1034.40 1034.18 1033.90 1033.58 1033.24 1032.88 1032.52 1032.16 1031.79 1031.41 1031.01 1030.60
1027.86 1028.45 1028.94 1029.33 1029.62 1029.85 1030.03 1030.18 1030.33 1030.47 1030.62 1030.78 1030.91 1031.04 1031.14 1031.21 1031.27 1031.32 1031.38 1031.46 1031.60 1031.78 1032.03 1032.32 1032.64 1032.98 1033.30 1033.58 1033.80 1033.93 1033.97 1033.92 1033.77 1033.55 1033.27 1032.95 1032.61 1032.24 1031.87 1031.50 1031.13 1030.74 1030.34 1029.94
1029.15 1029.57 1029.87 1030.05 1030.14 1030.15 1030.13 1030.10 1030.07 1030.07 1030.09 1030.13 1030.18 1030.23 1030.28 1030.33 1030.36 1030.41 1030.46 1030.56 1030.69 1030.89 1031.13 1031.43 1031.75 1032.09 1032.42 1032.71 1032.94 1033.09 1033.15 1033.12 1033.01 1032.82 1032.57 1032.27 1031.94 1031.60 1031.24 1030.87 1030.49 1030.10 1029.70 1029.28
1030.26 1030.51 1030.62 1030.61 1030.50 1030.33 1030.13 1029.93 1029.76 1029.64 1029.55 1029.51 1029.49 1029.50 1029.51 1029.53 1029.55 1029.57 1029.61 1029.69 1029.80 1029.97 1030.19 1030.45 1030.75 1031.06 1031.37 1031.66 1031.89 1032.06 1032.16 1032.18 1032.11 1031.98 1031.79 1031.55 1031.27 1030.95 1030.62 1030.26 1029.89 1029.49 1029.08 1028.67
1031.09 1031.19 1031.14 1030.96 1030.69 1030.37 1030.04 1029.72 1029.45 1029.23 1029.07 1028.97 1028.90 1028.86 1028.84 1028.82 1028.81 1028.79 1028.80 1028.82 1028.89 1028.99 1029.15 1029.36 1029.61 1029.88 1030.17 1030.44 1030.69 1030.88 1031.03 1031.10 1031.11 1031.06 1030.94 1030.77 1030.55 1030.29 1029.99 1029.66 1029.30 1028.91 1028.49 1028.06
1031.59 1031.57 1031.40 1031.10 1030.72 1030.30 1029.87 1029.48 1029.14 1028.86 1028.66 1028.50 1028.39 1028.31 1028.24 1028.17 1028.10 1028.03 1027.96 1027.92 1027.91 1027.94 1028.02 1028.16 1028.35 1028.58 1028.83 1029.10 1029.36 1029.59 1029.79 1029.93 1030.02 1030.05 1030.02 1029.93 1029.78 1029.57 1029.32 1029.01 1028.67 1028.28 1027.87 1027.44
1031.79 1031.68 1031.42 1031.04 1030.59 1030.11 1029.64 1029.21 1028.83 1028.52 1028.28 1028.08 1027.93 1027.79 1027.66 1027.52 1027.38 1027.22 1027.08 1026.94 1026.85 1026.79 1026.80 1026.87 1027.00 1027.19 1027.43 1027.69 1027.96 1028.23 1028.48 1028.69 1028.85 1028.95 1028.99 1028.97 1028.88 1028.73 1028.51 1028.24 1027.92 1027.55 1027.14 1026.72
1031.76 1031.58 1031.26 1030.84 1030.35 1029.85 1029.36 1028.90 1028.51 1028.17 1027.89 1027.66 1027.45 1027.24 1027.04 1026.82 1026.58 1026.34 1026.11 1025.89 1025.71 1025.58 1025.52 1025.54 1025.62 1025.79 1026.00 1026.27 1026.55 1026.85 1027.13 1027.38 1027.59 1027.74 1027.84 1027.86 1027.82 1027.70 1027.52 1027.28 1026.98 1026.63 1026.25 1025.84
1031.61 1031.36 1031.00 1030.55 1030.04 1029.53 1029.03 1028.57 1028.15 1027.79 1027.47 1027.18 1026.91 1026.63 1026.34 1026.03 1025.71 1025.39 1025.06 1024.77 1024.53 1024.34 1024.24 1024.22 1024.28 1024.42 1024.63 1024.89 1025.18 1025.48 1025.77 1026.03 1026.26 1026.43 1026.54 1026.58 1026.55 1026.46 1026.30 1026.08 1025.81 1025.50 1025.15 1024.77
1031.43 1031.13 1030.72 1030.23 1029.71 1029.19 1028.68 1028.20 1027.77 1027.37 1027.00 1026.65 1026.31 1025.95 1025.58 1025.18 1024.78 1024.38 1023.99 1023.64 1023.35 1023.13 1023.00 1022.96 1023.01 1023.13 1023.33 1023.58 1023.85 1024.13 1024.40 1024.65 1024.85 1025.00 1025.09 1025.12 1025.09 1025.00 1024.86 1024.67 1024.43 1024.15 1023.84 1023.52
1031.28 1030.91 1030.46 1029.95 1029.40 1028.86 1028.33 1027.84 1027.37 1026.93 1026.51 1026.09 1025.67 1025.23 1024.77 1024.31 1023.83 1023.37 1022.93 1022.55 1022.23 1022.00 1021.85 1021.80 1021.84 1021.95 1022.13 1022.34 1022.58 1022.83 1023.05 1023.24 1023.39 1023.49 1023.54 1023.54 1023.49 1023.39 1023.26 1023.08 1022.88 1022.65 1022.40 1022.15
1031.17 1030.74 1030.25 1029.70 1029.13 1028.57 1028.02 1027.49 1026.99 1026.50 1026.02 1025.53 1025.03 1024.52 1023.99 1023.46 1022.93 1022.42 1021.95 1021.54 1021.21 1020.97 1020.82 1020.76 1020.78 1020.87 1021.02 1021.19 1021.38 1021.56 1021.71 1021.83 1021.91 1021.95 1021.94 1021.90 1021.82 1021.71 1021.59 1021.44 1021.28 1021.10 1020.92 1020.72
1031.08 1030.60 1030.07 1029.49 1028.91 1028.33 1027.75 1027.20 1026.66 1026.12 1025.58 1025.03 1024.47 1023.89 1023.30 1022.70 1022.12 1021.58 1021.08 1020.66 1020.31 1020.06 1019.90 1019.83 1019.83 1019.89 1019.99 1020.11 1020.23 1020.34 1020.42 1020.46 1020.47 1020.44 1020.38 1020.30 1020.19 1020.08 1019.97 1019.85 1019.73 1019.61 1019.48 1019.35
1030.97 1030.46 1029.90 1029.32 1028.73 1028.14 1027.55 1026.98 1026.40 1025.83 1025.24 1024.63 1024.01 1023.36 1022.72 1022.07 1021.45 1020.87 1020.35 1019.90 1019.54 1019.27 1019.09 1018.99 1018.96 1018.98 1019.03 1019.09 1019.15 1019.19 1019.19 1019.17 1019.11 1019.03 1018.93 1018.82 1018.71 1018.60 1018.50 1018.41 1018.33 1018.25 1018.17 1018.09
1030.80 1030.29 1029.74 1029.16 1028.59 1028.01 1027.42 1026.84 1026.25 1025.64 1025.00 1024.35 1023.67 1022.97 1022.27 1021.58 1020.91 1020.30 1019.74 1019.27 1018.88 1018.59 1018.38 1018.24 1018.17 1018.14 1018.14 1018.15 1018.14 1018.12 1018.07 1018.00 1017.90 1017.78 1017.66 1017.54 1017.42 1017.32 1017.24 1017.17 1017.12 1017.07 1017.02 1016.96
1030.59 1030.10 1029.58 1029.04 1028.49 1027.93 1027.37 1026.78 1026.18 1025.54 1024.88 1024.18 1023.45 1022.70 1021.95 1021.21 1020.50 1019.84 1019.25 1018.74 1018.32 1017.99 1017.74 1017.57 1017.45 1017.37 1017.32 1017.28 1017.23 1017.16 1017.07 1016.97 1016.85 1016.71 1016.58 1016.46 1016.35 1016.26 1016.19 1016.13 1016.08 1016.04 1015.99 1015.92
Thickness
5408 5410 5407 5400 5397 5394 5386 5384 5381 5383 5380 5375 5363 5356 5351 5345 5340 5337 5333 5330 5328 5326 5326 5326 5327 5328 5329 5331 5333 5336 5338 5340 5343 5346 5348 5351 5354 5357 5360 5363 5366 5370 5373 5376
5390 5397 5394 5389 5390 5387 5381 5378 5373 5372 5367 5360 5352 5346 5339 5333 5330 5325 5321 5319 5317 5315 5314 5314 5314 5315 5316 5318 5320 5322 5324 5326 5330 5332 5335 5337 5340 5344 5346 5350 5353 5356 5360 5363
5381 5385 5379 5371 5375 5374 5370 5366 5362 5357 5354 5345 5339 5334 5328 5323 5318 5313 5310 5307 5305 5303 5301 5301 5302 5303 5304 5306 5308 5309 5311 5313 5316 5318 5321 5323 5325 5328 5332 5335 5338 5341 5345 5348
5366 5366 5359 5370 5367 5366 5356 5350 5347 5342 5338 5333 5329 5322 5317 5312 5306 5302 5299 5296 5293 5291 5290 5289 5290 5291 5292 5294 5296 5297 5299 5300 5302 5304 5306 5309 5311 5314 5317 5320 5323 5327 5330 5334
5355 5352 5360 5360 5355 5347 5341 5335 5334 5330 5327 5321 5315 5310 5304 5301 5297 5292 5288 5285 5282 5280 5279 5278 5278 5279 5281 5282 5284 5285 5286 5288 5289 5290 5292 5295 5297 5300 5303 5306 5310 5313 5317 5320
5349 5347 5350 5350 5336 5335 5331 5321 5322 5319 5314 5307 5303 5299 5296 5290 5285 5281 5278 5274 5271 5269 5268 5267 5267 5268 5269 5270 5271 5272 5273 5275 5276 5277 5279 5281 5284 5286 5290 5293 5297 5301 5304 5307
5336 5337 5338 5324 5321 5323 5318 5316 5308 5306 5301 5294 5289 5285 5281 5278 5274 5270 5267 5264 5261 5259 5257 5256 5256 5256 5257 5257 5258 5259 5261 5263 5264 5266 5267 5269 5271 5274 5277 5281 5285 5288 5291 5293
5327 5326 5326 5306 5307 5304 5302 5297 5295 5291 5286 5280 5275 5271 5269 5266 5263 5260 5256 5254 5251 5248 5247 5246 5245 5244 5245 5245 5246 5247 5248 5250 5252 5254 5256 5258 5259 5262 5264 5267 5270 5274 5277 5280
5315 5313 5306 5296 5293 5289 5286 5283 5280 5276 5271 5267 5263 5259 5257 5254 5251 5248 5245 5242 5240 5237 5235 5234 5233 5232 5232 5233 5234 5235 5236 5238 5241 5243 5245 5246 5247 5249 5251 5254 5257 5260 5263 5266
5299 5299 5293 5287 5282 5278 5274 5269 5266 5262 5258 5254 5250 5247 5244 5242 5239 5236 5234 5231 5228 5226 5224 5222 5221 5221 5220 5221 5221 5222 5224 5226 5229 5231 5234 5235 5236 5238 5240 5242 5244 5247 5250 5252
5284 5283 5279 5277 5272 5267 5262 5257 5253 5249 5245 5241 5238 5234 5231 5228 5226 5223 5222 5219 5217 5213 5212 5211 5210 5209 5209 5208 5209 5210 5212 5214 5216 5219 5221 5223 5225 5227 5229 5231 5233 5235 5237 5239
5280 5275 5269 5265 5259 5255 5249 5244 5239 5235 5231 5228 5225 5221 5219 5216 5213 5211 5209 5207 5204 5202 5200 5199 5197 5197 5196 5196 5196 5197 5200 5202 5205 5207 5209 5212 5214 5217 5219 5221 5224 5225 5227 5228
5262 5257 5252 5248 5245 5241 5236 5232 5228 5223 5219 5215 5212 5209 5207 5204 5202 5199 5196 5194 5192 5190 5188 5187 5186 5185 5185 5185 5185 5185 5187 5189 5192 5195 5197 5200 5202 5204 5207 5210 5212 5214 5216 5218
5247 5243 5240 5236 5231 5226 5223 5219 5215 5211 5207 5204 5201 5198 5195 5192 5189 5186 5184 5182 5180 5178 5177 5175 5175 5174 5174 5174 5174 5174 5176 5178 5181 5182 5184 5187 5189 5191 5193 5196 5199 5201 5203 5206
5234 5230 5225 5221 5217 5214 5211 5207 5203 5199 5196 5193 5189 5186 5183 5179 5176 5174 5172 5171 5169 5167 5166 5165 5164 5164 5163 5163 5163 5163 5165 5167 5168 5170 5172 5174 5177 5178 5180 5182 5185 5188 5190 5193
5222 5217 5214 5210 5206 5202 5198 5194 5190 5187 5184 5181 5177 5174 5170 5167 5165 5163 5161 5159 5157 5156 5155 5154 5153 5153 5153 5152 5152 5153 5154 5156 5157 5158 5160 5161 5163 5165 5167 5169 5171 5174 5177 5180
5210 5207 5203 5199 5196 5191 5187 5182 5179 5175 5172 5169 5165 5162 5159 5156 5154 5152 5150 5148 5146 5145 5144 5144 5143 5143 5143 5142 5142 5142 5143 5144 5146 5146 5147 5148 5150 5152 5153 5155 5158 5160 5163 5167
5200 5196 5192 5187 5184 5180 5176 5172 5169 5165 5161 5158 5155 5151 5148 5145 5143 5142 5140 5138 5137 5135 5135 5134 5134 5134 5133 5133 5132 5131 5131 5132 5132 5133 5134 5135 5137 5139 5141 5143 5145 5147 5151 5153
5190 5186 5182 5178 5173 5169 5165 5161 5158 5154 5151 5147 5144 5140 5137 5135 5133 5131 5129 5127 5126 5125 5125 5124 5125 5124 5123 5122 5122 5121 5121 5121 5121 5122 5122 5124 5126 5127 5128 5130 5132 5135 5138 5141
5181 5177 5172 5168 5164 5159 5155 5151 5147 5144 5141 5137 5134 5130 5128 5125 5123 5121 5119 5117 5116 5115 5115 5114 5114 5113 5112 5111 5112 5111 5110 5110 5110 5111 5112 5112 5114 5115 5117 5119 5121 5123 5126 5129
5170 5166 5162 5157 5153 5150 5146 5142 5138 5134 5131 5128 5124 5121 5118 5116 5113 5111 5109 5110 5109 5107 5106 5105 5104 5103 5102 5102 5102 5100 5100 5099 5099 5100 5100 5101 5103 5104 5106 5108 5110 5112 5115 5117
5159 5155 5151 5147 5143 5140 5136 5132 5129 5126 5122 5119 5115 5112 5109 5107 5105 5103 5101 5100 5099 5099 5098 5096 5094 5094 5094 5094 5092 5091 5090 5090 5090 5090 5090 5091 5093 5094 5096 5097 5099 5101 5103 5106
5150 5146 5142 5138 5133 5130 5126 5123 5120 5116 5113 5110 5107 5103 5101 5099 5097 5094 5094 5092 5091 5090 5089 5087 5086 5087 5087 5085 5083 5082 5081 5081 5081 5081 5081 5082 5083 5084 5086 5087 5088 5090 5092 5095
5141 5137 5133 5128 5124 5120 5117 5115 5111 5108 5104 5101 5098 5095 5092 5090 5088 5086 5084 5084 5083 5082 5080 5079 5079 5079 5078 5075 5074 5073 5072 5072 5072 5072 5073 5073 5074 5075 5076 5077 5079 5081 5083 5085
5132 5127 5123 5119 5115 5113 5110 5106 5103 5099 5097 5094 5091 5088 5085 5082 5080 5078 5076 5074 5074 5074 5072 5070 5070 5070 5068 5066 5065 5064 5064 5064 5065 5065 5065 5065 5066 5067 5068 5069 5070 5072 5075 5077
5123 5119 5115 5111 5108 5105 5101 5098 5094 5091 5088 5086 5083 5080 5078 5075 5073 5070 5068 5067 5065 5065 5063 5062 5060 5060 5059 5058 5057 5057 5057 5057 5057 5057 5058 5058 5059 5060 5061 5062 5063 5065 5067 5070
5115 5111 5107 5103 5100 5096 5092 5089 5085 5082 5080 5077 5075 5073 5070 5068 5065 5063 5061 5059 5058 5056 5055 5054 5053 5052 5051 5051 5050 5050 5050 5050 5051 5051 5052 5052 5053 5054 5055 5056 5057 5059 5061 5063